TimeEST,TemperatureF,Dew PointF,Humidity,Sea Level PressureIn,VisibilityMPH,Wind Direction,Wind SpeedMPH,Gust SpeedMPH,PrecipitationIn,Events,Conditions,WindDirDegrees,DateUTC
12:15 AM,37.4,37.4,100,30.08,4.0,NNE,8.1,-,N/A,,Overcast,30,2013-12-02 05:15:00
12:35 AM,37.4,37.4,100,30.07,4.0,NNE,12.7,17.3,0.01,,Overcast,30,2013-12-02 05:35:00
12:55 AM,37.4,37.4,100,30.07,5.0,NNE,11.5,19.6,0.02,,Overcast,30,2013-12-02 05:55:00
1:15 AM,37.4,35.6,93,30.07,5.0,NNE,9.2,17.3,0.01,,Overcast,20,2013-12-02 06:15:00
1:35 AM,37.4,35.6,93,30.07,6.0,NNE,12.7,20.7,0.02,,Overcast,20,2013-12-02 06:35:00
1:55 AM,37.4,35.6,93,30.06,8.0,NNE,13.8,19.6,0.02,,Overcast,20,2013-12-02 06:55:00
2:15 AM,37.4,37.4,100,30.05,10.0,NNE,13.8,20.7,0.01,,Overcast,30,2013-12-02 07:15:00
2:35 AM,37.4,37.4,100,30.05,10.0,NNE,13.8,21.9,0.02,,Overcast,30,2013-12-02 07:35:00
2:55 AM,37.4,37.4,100,30.04,7.0,NNE,11.5,18.4,0.04,,Overcast,30,2013-12-02 07:55:00
3:15 AM,37.4,35.6,93,30.03,7.0,NNE,9.2,17.3,0.02,,Overcast,30,2013-12-02 08:15:00
3:35 AM,37.4,37.4,100,30.03,6.0,NNE,12.7,18.4,0.03,,Overcast,30,2013-12-02 08:35:00
3:55 AM,39.2,39.2,100,30.02,5.0,NNE,9.2,16.1,0.06,,Overcast,30,2013-12-02 08:55:00
4:15 AM,39.2,39.2,100,30.02,8.0,NE,10.4,-,0.02,,Overcast,50,2013-12-02 09:15:00
4:35 AM,39.2,39.2,100,30.01,5.0,NE,15.0,-,0.06,,Overcast,50,2013-12-02 09:35:00
4:55 AM,39.2,39.2,100,30.01,4.0,ENE,12.7,-,0.13,,Mostly Cloudy,60,2013-12-02 09:55:00
5:15 AM,41.0,39.2,93,30.01,7.0,NE,10.4,-,0.09,,Overcast,50,2013-12-02 10:15:00
5:35 AM,41.0,41.0,100,30.01,8.0,ENE,10.4,-,0.13,,Overcast,60,2013-12-02 10:35:00
5:55 AM,41.0,41.0,100,30.01,5.0,ENE,10.4,-,0.18,,Overcast,60,2013-12-02 10:55:00
6:15 AM,41.0,41.0,100,30.01,7.0,ENE,12.7,-,0.07,,Overcast,60,2013-12-02 11:15:00
6:35 AM,41.0,41.0,100,30.01,7.0,ENE,10.4,-,0.12,,Overcast,60,2013-12-02 11:35:00
6:55 AM,41.0,39.2,93,30.00,6.0,ENE,15.0,-,0.13,,Overcast,60,2013-12-02 11:55:00
7:15 AM,42.8,41.0,93,30.00,6.0,ENE,11.5,-,0.02,,Overcast,70,2013-12-02 12:15:00
7:35 AM,42.8,39.2,87,30.01,10.0,East,13.8,23.0,0.02,,Overcast,80,2013-12-02 12:35:00
7:55 AM,42.8,39.2,87,30.00,8.0,East,13.8,21.9,0.02,,Overcast,80,2013-12-02 12:55:00
8:15 AM,42.8,39.2,87,30.01,10.0,East,12.7,19.6,N/A,,Overcast,80,2013-12-02 13:15:00
8:35 AM,42.8,39.2,87,30.01,10.0,East,12.7,19.6,N/A,,Overcast,90,2013-12-02 13:35:00
8:55 AM,42.8,39.2,87,30.00,7.0,East,17.3,23.0,N/A,,Overcast,90,2013-12-02 13:55:00
9:15 AM,42.8,39.2,87,30.00,9.0,East,13.8,23.0,N/A,,Overcast,90,2013-12-02 14:15:00
9:35 AM,42.8,41.0,93,30.00,10.0,East,11.5,-,N/A,,Overcast,90,2013-12-02 14:35:00
9:55 AM,44.6,41.0,87,30.00,10.0,East,13.8,19.6,N/A,,Overcast,90,2013-12-02 14:55:00
10:15 AM,44.6,42.8,93,29.99,10.0,East,15.0,-,N/A,,Overcast,90,2013-12-02 15:15:00
10:35 AM,44.6,42.8,93,29.99,10.0,East,13.8,18.4,N/A,,Overcast,90,2013-12-02 15:35:00
10:55 AM,44.6,42.8,93,29.97,10.0,East,13.8,20.7,N/A,,Overcast,100,2013-12-02 15:55:00
11:15 AM,44.6,42.8,93,29.97,10.0,East,13.8,-,N/A,,Overcast,100,2013-12-02 16:15:00
11:35 AM,44.6,41.0,87,29.96,10.0,East,12.7,-,N/A,,Overcast,100,2013-12-02 16:35:00
11:55 AM,44.6,42.8,93,29.96,10.0,East,13.8,20.7,N/A,,Overcast,100,2013-12-02 16:55:00
12:15 PM,44.6,42.8,93,29.95,10.0,East,12.7,19.6,N/A,,Overcast,90,2013-12-02 17:15:00
12:35 PM,44.6,42.8,93,29.95,10.0,East,12.7,-,N/A,,Overcast,90,2013-12-02 17:35:00
12:55 PM,44.6,42.8,93,29.95,10.0,East,11.5,-,N/A,,Overcast,90,2013-12-02 17:55:00
1:15 PM,44.6,42.8,93,29.95,10.0,East,15.0,-,N/A,,Overcast,90,2013-12-02 18:15:00
1:35 PM,44.6,42.8,93,29.95,10.0,East,12.7,17.3,N/A,,Overcast,100,2013-12-02 18:35:00
1:55 PM,44.6,42.8,93,29.95,10.0,East,11.5,-,N/A,,Overcast,90,2013-12-02 18:55:00
2:15 PM,44.6,42.8,93,29.94,10.0,East,10.4,-,N/A,,Overcast,80,2013-12-02 19:15:00
2:35 PM,44.6,42.8,93,29.94,10.0,ENE,8.1,-,N/A,,Overcast,60,2013-12-02 19:35:00
2:55 PM,44.6,42.8,93,29.94,10.0,East,6.9,-,N/A,,Overcast,80,2013-12-02 19:55:00
3:15 PM,44.6,42.8,93,29.94,10.0,ENE,8.1,-,N/A,,Overcast,70,2013-12-02 20:15:00
3:35 PM,44.6,42.8,93,29.93,10.0,ENE,8.1,-,N/A,,Overcast,70,2013-12-02 20:35:00
3:55 PM,44.6,42.8,93,29.93,10.0,ENE,9.2,-,N/A,,Overcast,60,2013-12-02 20:55:00
4:15 PM,44.6,42.8,93,29.93,10.0,NE,8.1,-,N/A,,Overcast,50,2013-12-02 21:15:00
4:35 PM,42.8,42.8,100,29.93,10.0,NNE,5.8,-,N/A,,Overcast,20,2013-12-02 21:35:00
4:55 PM,42.8,41.0,93,29.93,5.0,NNE,6.9,-,N/A,,Overcast,30,2013-12-02 21:55:00
5:15 PM,42.8,41.0,93,29.94,3.0,NNE,6.9,-,N/A,,Overcast,20,2013-12-02 22:15:00
5:35 PM,42.8,41.0,93,29.94,3.0,North,4.6,-,N/A,,Overcast,10,2013-12-02 22:35:00
5:55 PM,42.8,41.0,93,29.95,2.0,NNE,3.5,-,N/A,,Overcast,30,2013-12-02 22:55:00
6:15 PM,42.8,42.8,100,29.95,2.0,NNE,3.5,-,N/A,,Overcast,20,2013-12-02 23:15:00
6:35 PM,42.8,42.8,100,29.95,1.8,NNE,3.5,-,N/A,,Overcast,30,2013-12-02 23:35:00
6:55 PM,42.8,41.0,93,29.95,1.8,NNE,6.9,-,N/A,,Overcast,20,2013-12-02 23:55:00
7:15 PM,41.0,41.0,100,29.94,2.0,NNE,6.9,-,N/A,,Overcast,30,2013-12-03 00:15:00
7:35 PM,41.0,39.2,93,29.94,3.0,NNE,9.2,-,N/A,,Overcast,30,2013-12-03 00:35:00
7:55 PM,41.0,39.2,93,29.94,3.0,NNE,8.1,-,N/A,,Overcast,30,2013-12-03 00:55:00
8:15 PM,41.0,39.2,93,29.94,2.5,NNE,8.1,-,N/A,,Overcast,30,2013-12-03 01:15:00
8:35 PM,39.2,39.2,100,29.94,3.0,NNE,10.4,-,N/A,,Overcast,30,2013-12-03 01:35:00
8:55 PM,39.2,39.2,100,29.94,3.0,NNE,8.1,-,N/A,,Overcast,20,2013-12-03 01:55:00
9:15 PM,39.2,37.4,93,29.94,3.0,NNE,6.9,-,N/A,,Overcast,30,2013-12-03 02:15:00
9:35 PM,39.2,37.4,93,29.94,3.0,NNE,8.1,-,N/A,,Overcast,30,2013-12-03 02:35:00
9:55 PM,39.2,37.4,93,29.94,3.0,NNE,8.1,-,N/A,,Overcast,30,2013-12-03 02:55:00
10:15 PM,39.2,39.2,100,29.94,4.0,NNE,8.1,-,N/A,,Overcast,30,2013-12-03 03:15:00
10:35 PM,39.2,37.4,93,29.94,5.0,NNE,9.2,-,N/A,,Overcast,30,2013-12-03 03:35:00
10:55 PM,39.2,39.2,100,29.93,5.0,NE,10.4,-,N/A,,Overcast,40,2013-12-03 03:55:00
11:15 PM,39.2,39.2,100,29.93,6.0,NE,9.2,-,N/A,,Overcast,40,2013-12-03 04:15:00
11:35 PM,39.2,39.2,100,29.92,5.0,NNE,10.4,-,N/A,,Overcast,30,2013-12-03 04:35:00
11:55 PM,39.2,39.2,100,29.91,5.0,NNE,8.1,-,N/A,,Overcast,30,2013-12-03 04:55:00